Agen Poker | Poker Online | Poker Uang Asli | Dewa Poker

Jackpot

Texas Poker Multi Jackpot System

Kini Telah hadir Jackpot SUPER ROYAL FLUSH

Kini Telah hadir Jackpot 2000 (khusus table VIP keatas).

Ikutilah global jackpot yang tersedia di system kami, dengan system jackpot terbaru dan pertama di indonesia, anda dapat membeli jackpot dengan harga 100 rupiah saja dan menangkan hadiahnya hingga puluhan juta rupiah.

Jackpot bukanlah suatu keharusan untuk dibeli, namun kami memberikan suatu fitur tambahan untuk member tercinta dari www.kudapoker.info.

Terdapat tiga pilihan harga jackpot yang bisa anda beli yaitu :100,500,1000 dan 2000(khusus table VIP Keatas) rupiah.

Hadiah dari Multi jackpot system www.kudapoker.info

  1. full house x 10 harga jackpot yang anda beli.
      (contoh:anda membeli 1000 maka:1000 X10 = 10.000)
  2. four of kind x 250 harga jackpot yang anda beli
      (contoh:anda membeli 1000 maka:1000 X250 = 250.000)
  3. Straight flush x 1200
      (contoh:anda membeli 1000 maka:1000 X1200 = 1.200.000)
  4. Royal flush x 10000 harga jackpot yang anda beli
      (contoh:anda membeli 1000 maka:1000 X10000 = 10.000.000)
  5. SUPER ROYAL FLUSH x 30000 harga jackpot yang anda beli
      (contoh:anda membeli 1000 maka:1000 X30000 = 30.000.000)

Kondisi kartu

  1. full house adalah kondisi kartu dimana kartu anda dan kartu tengah dengan total 7 kartu bisa mendapatkan nilai 5 kartu dengan kombinasi 1 tris(three of kind) dan 1 pair, contoh 3 kartu 10 dan 2 kartu 5
  2. Four of kind adalah kondisi kartu dimana kartu anda dan kartu tengah dengan total 7 kartu bisa mendapatkan nilai 5 kartu dengan kombinasi 4 kartu yang sama jumlah dan 1 kartu apapun juga contoh anda mendapatkan 4 buah kartu angka 3 dan 1 kartu apapun.
  3. Staright flush adalah kondisi kartu dimana kartu anda dan kartu tengah dengan total 7 kartu bisa mendapatkan nilai 5 kartu dengan kombinasi seri / staright dengan kembang yang sama contoh : urutan kartu dari angka 5, 6, 7, 8 , 9 10 dengan kembang yg sama misalnya as hati
  4. Royal flush adalah kondisi kartu dimana kartu anda dan kartu tengah dengan total 7 kartu bisa mendapatkan nilai 5 kartu dengan kombinasi seri / staright dengan kembang yang sama tetapi kartu tersebut haruslah dimulai dari 10. contoh 10, Queen, Jack, King dan aces dengan kembang yang sama
  5. Super Royal flush adalah kondisi kartu dimana Kedua kartu anda digabung dengan 3 kartu pertama meja haruslah royal flush. contoh kartu anda 10,Queen kembang sama dan 3 kartu pertama meja adalah Jack, King dan aces dengan kembang yang sama

Demikian adalah penjelasan dari Multi Jackpot www.kudapoker.info terima kasih dan selamat bermain salam hoki dari kami

Texas Poker Jackpot Winner

TOP SUPER ROYAL FLUSH
No.TanggalNamaPriceWin
122/09 02:24TAUN101Super Royal flush30,000,000
221/09 14:11ROYALJOZZSuper Royal flush60,000,000
321/09 13:43BA_ATIYOSuper Royal flush6,000,000
421/09 12:23B8EKCBJIYMSuper Royal flush3,000,000
521/09 08:32TUPO25Super Royal flush3,000,000
TOP ROYAL FLUSH
No.TanggalNamaPriceWin
122/09 03:28KAWUL696Royal flush5,000,000
222/09 03:24DINBOHYERoyal flush5,000,000
322/09 03:16GANYANG27Royal flush10,000,000
422/09 03:10BDCC9BA9Royal flush2,000,000
522/09 02:56AMARASULI8Royal flush5,000,000
TOP STRAIGHT FLUSH
No.TanggalNamaPriceWin
122/09 03:34BUNGDED81Straight Flush600,000
222/09 03:33CUGAK47Straight Flush600,000
322/09 03:33JABRIX69Straight Flush600,000
422/09 03:32X32AEIK77MStraight Flush120,000
522/09 03:29GEORGE24Straight Flush240,000
LATEST JACKPOT
No.TanggalNamaPriceWin
122/09 03:34AA4231A4Full House2,000
222/09 03:34K7T1LLFCCCFull House2,000
322/09 03:34BUNGDED81Straight Flush600,000
422/09 03:34BUFFA_LOFull House5,000
522/09 03:34UAUMAMFull House2,000
622/09 03:34NUFH2TFBWWFull House5,000
722/09 03:34DAPEN12Four Of A Kind25,000
822/09 03:34GONNNDESSFull House10,000
922/09 03:34LUCKY_E7EFull House10,000
1022/09 03:34COMBAT001Full House5,000
1122/09 03:34F0EB7911Full House1,000
1222/09 03:34VOLUME8888Full House1,000
1322/09 03:34WIN133Full House5,000
1422/09 03:34AMOYFull House1,000
1522/09 03:34ULTRAMEN11Full House5,000
1622/09 03:34RIKLONA50Full House2,000
1722/09 03:34GOSDOS99Full House1,000
1822/09 03:34SAWENABNIFull House2,000
1922/09 03:34GABE78Full House10,000
2022/09 03:34PAGAWA77Full House10,000
2122/09 03:33SOKA88Full House5,000
2222/09 03:33REKNUBFull House5,000
2322/09 03:33HIGH_SO_HIFull House5,000
2422/09 03:33D0793B78Full House10,000
2522/09 03:33G8IBPZM5G0Full House2,000
2622/09 03:33L823SQGBLTFull House1,000
2722/09 03:33ICHALMAMENFull House2,000
2822/09 03:33MALIK47Full House1,000
2922/09 03:33BATIXFull House1,000
3022/09 03:33CB375678Full House2,000
3122/09 03:33WINK010Full House5,000
3222/09 03:33EA9B1294Full House2,000
3322/09 03:33RHYNAFull House10,000
3422/09 03:33PASHADELIAFull House2,000
3522/09 03:33FIEZTA42Four Of A Kind12,500
3622/09 03:33MAHESAESAFull House20,000
3722/09 03:33NUMBA27Full House10,000
3822/09 03:33RAFFASYA11Full House20,000
3922/09 03:33DEVAND27Full House10,000
4022/09 03:33HEADSETZFull House1,000
4122/09 03:33B9FE43F9Four Of A Kind25,000
4222/09 03:33RADO_01Four Of A Kind250,000
4322/09 03:33KANGTAW02Full House5,000
4422/09 03:33SUWEEELUHFull House5,000
4522/09 03:33INDRIPURBAFour Of A Kind250,000
4622/09 03:33CUGAK47Straight Flush600,000
4722/09 03:33BINA577Full House2,000
4822/09 03:33AWUG1207Full House5,000
4922/09 03:33ISVZIFull House2,000
5022/09 03:33MERCY_Full House2,000

Domino Multi Jackpot System

Ikutilah global jackpot yang tersedia di system kami, dengan system jackpot terbaru dan pertama di indonesia, anda dapat membeli jackpot dengan harga 100 rupiah saja dan menangkan hadiahnya hingga puluhan juta rupiah.

Jackpot bukanlah suatu keharusan untuk dibeli, namun kami memberikan suatu fitur tambahan untuk member tercinta dari www.kudapoker.info.

Terdapat tiga pilihan harga jackpot yang bisa anda beli yaitu :100,500 dan 1000 rupiah.

Hadiah dari Multi jackpot system www.kudapoker.info

  1. Murni Kecil x 50 harga jackpot yang anda beli.
      (contoh:anda membeli 1000 maka:1000 X 50 = 50.000)
  2. Murni Besar x 50 harga jackpot yang anda beli
      (contoh:anda membeli 1000 maka:1000 X 50 = 50.000)
  3. BALAK x 100 harga jackpot yang anda beli
      (contoh:anda membeli 1000 maka:1000 X 100 = 100.000)
  4. ENAM DEWA x 6666 harga jackpot yang anda beli
      (contoh:anda membeli 1000 maka:1000 X 6666 = 6.666.000)

Demikian adalah penjelasan dari Multi Jackpot www.kudapoker.info terima kasih dan selamat bermain salam hoki dari kami

Domino Jackpot Winner

TOP ENAM DEWA
No.TanggalNamaPriceWin
122/09 01:09WISMA92murni enam3,333,000
222/09 01:08ABAY888888murni enam3,333,000
322/09 00:44AMSEO99murni enam3,333,000
422/09 00:43DYCK22murni enam6,666,000
521/09 23:35TEMPE444murni enam666,600
TOP BALAK
No.TanggalNamaPriceWin
122/09 03:26CINTAEMUT7balak100,000
222/09 03:08PHCP123balak100,000
322/09 03:05IBP89725balak10,000
422/09 03:04KUDA5777balak100,000
522/09 03:03RA81ESbalak100,000
LATEST JACKPOT
No.TanggalNamaPriceWin
122/09 03:33HK4DMAMANmurni besar50,000
222/09 03:33TANKSUMPUmurni besar50,000
322/09 03:32ASR1067murni kecil5,000
422/09 03:30CINTEK56murni kecil5,000
522/09 03:30GA3S2I9JF2murni kecil5,000
622/09 03:29A96INACEP88murni besar50,000
722/09 03:29ED473B6Dmurni besar50,000
822/09 03:29ESHAALmurni kecil25,000
922/09 03:29HK4DMAMANmurni kecil50,000
1022/09 03:29RASAKNA_LEmurni besar50,000
1122/09 03:26U7VHEVCNM9murni kecil50,000
1222/09 03:26CINTAEMUT7balak100,000
1322/09 03:25CB77MENANGAN69murni kecil50,000
1422/09 03:24NAGA_9murni besar50,000
1522/09 03:23NMBEGEDHUTmurni besar50,000
1622/09 03:23RIJALANmurni besar50,000
1722/09 03:23UDIL99murni kecil50,000
1822/09 03:21PLUR066murni kecil25,000
1922/09 03:21ADEKBDmurni besar25,000
2022/09 03:21PTR80Tmurni kecil50,000
2122/09 03:20CEKIHC0Ymurni besar5,000
2222/09 03:20WAHYU7326murni besar50,000
2322/09 03:20CINTAEMUT7murni besar50,000
2422/09 03:19B0X2RYHFVYlucky9910,000
2522/09 03:18JYD0M4GZZRmurni besar25,000
2622/09 03:18BP883256murni besar25,000
2722/09 03:17BARBARQQmurni besar50,000
2822/09 03:16KUY88888murni kecil50,000
2922/09 03:15MP4DEMANGGPmurni besar50,000
3022/09 03:15BUSABU77murni kecil50,000
3122/09 03:15ISAF20murni besar50,000
3222/09 03:14ISAF20murni besar50,000
3322/09 03:14AGUS9194murni kecil25,000
3422/09 03:13BLACK_OPSmurni kecil50,000
3522/09 03:13JONKUR02murni kecil25,000
3622/09 03:13MONYET986murni besar5,000
3722/09 03:13BEGUG20murni besar50,000
3822/09 03:12RIGAHAYUlucky992,500
3922/09 03:10Z03LF1K4Rmurni kecil50,000
4022/09 03:10R1JWNM8F74murni besar50,000
4122/09 03:09CAN83murni kecil5,000
4222/09 03:08UCOXX_7263murni kecil50,000
4322/09 03:08PHCP123balak100,000
4422/09 03:08JPWINNER87murni besar50,000
4522/09 03:08DADO378murni kecil25,000
4622/09 03:07ZULSGPmurni kecil25,000
4722/09 03:07MOBMAR72murni besar50,000
4822/09 03:05IBP89725balak10,000
4922/09 03:05SARFILO13murni besar5,000
5022/09 03:04KUDA5777balak100,000

Ceme Multi Jackpot System

Jackpot dilihat dari gabungan kartu pemain dengan kartu bandar. Bandar harus membeli jackpot sebanyak jumlah player yang sedang duduk. Sebagai contoh bila terdapat 3 pemain duduk bermain, dan bandar memutuskan untuk membeli jackpot Rp 1.000, maka pada periode tersebut bandar akan membeli jackpot sebanyak 3xRp1.000 = Rp3.000.

Jackpot bukanlah suatu keharusan untuk dibeli, namun kami memberikan suatu fitur tambahan untuk member tercinta dari www.kudapoker.info.

Terdapat tiga pilihan harga jackpot yang bisa anda beli yaitu :100,500 dan 1000 rupiah.

Hadiah dari Multi jackpot system www.kudapoker.info

  1. Murni Kecil x 50 harga jackpot yang anda beli.
      (contoh:anda membeli 1000 maka:1000 X 50 = 50.000)
  2. Murni Besar x 50 harga jackpot yang anda beli
      (contoh:anda membeli 1000 maka:1000 X 50 = 50.000)
  3. BALAK x 200 harga jackpot yang anda beli
      (contoh:anda membeli 1000 maka:1000 X 200 = 200.000)
  4. ENAM DEWA x 6666 harga jackpot yang anda beli
      (contoh:anda membeli 1000 maka:1000 X 6666 = 6.666.000)

Demikian adalah penjelasan dari Multi Jackpot www.kudapoker.info terima kasih dan selamat bermain salam hoki dari kami

Ceme Jackpot Winner

TOP ENAM DEWA
No.TanggalNamaPriceWin
122/09 03:28ERBEmurni enam6,666,000
222/09 03:15THIO10murni enam6,666,000
322/09 03:15ZE13murni enam666,600
422/09 03:13UDEDmurni enam6,666,000
522/09 03:13AHMAD7777murni enam666,600
TOP BALAK
No.TanggalNamaPriceWin
122/09 03:33RENDYMAN88balak100,000
222/09 03:33CHAYRAAbalak200,000
322/09 03:33DIEDON85balak200,000
422/09 03:31KERMET123balak20,000
522/09 03:31Y2GPB9IK0Pbalak200,000
LATEST JACKPOT
No.TanggalNamaPriceWin
122/09 03:34RADEN187murni besar50,000
222/09 03:34SGANTENG76murni besar5,000
322/09 03:34MBAHBEK666murni besar50,000
422/09 03:34TITIANmurni kecil50,000
522/09 03:34JOKER1333murni kecil50,000
622/09 03:33HRP561978murni kecil50,000
722/09 03:33NAZZ20murni besar50,000
822/09 03:33RADEN187murni kecil50,000
922/09 03:33CAPONG99murni besar50,000
1022/09 03:33TEDY2020murni besar50,000
1122/09 03:33SUKMAAPRImurni besar50,000
1222/09 03:33RENDYMAN88balak100,000
1322/09 03:33CHAYRAAbalak200,000
1422/09 03:33DIEDON85balak200,000
1522/09 03:32C2FB0CF1murni kecil50,000
1622/09 03:32KMD129murni kecil25,000
1722/09 03:32NAMRAPUSmurni kecil50,000
1822/09 03:32TITIANmurni kecil50,000
1922/09 03:32LIPUS86murni besar50,000
2022/09 03:32THIO10murni kecil50,000
2122/09 03:32KUNTET11murni kecil50,000
2222/09 03:32REQTUN1IFKmurni kecil50,000
2322/09 03:32UL4Y168murni besar50,000
2422/09 03:32CIMURAH890murni kecil50,000
2522/09 03:32RICHIE19murni kecil50,000
2622/09 03:32LAPAKF1Kmurni besar5,000
2722/09 03:32TITIANmurni besar50,000
2822/09 03:32ARIEF_ARFImurni besar25,000
2922/09 03:31WALUYO11murni kecil50,000
3022/09 03:31TOPWIN01murni besar50,000
3122/09 03:31HAIDAR11murni besar50,000
3222/09 03:31KERMET123balak20,000
3322/09 03:31Y2GPB9IK0Pbalak200,000
3422/09 03:31CHAYRAAmurni kecil50,000
3522/09 03:31PENJOL99murni kecil50,000
3622/09 03:31IAM522murni besar25,000
3722/09 03:31MABRUK63murni besar50,000
3822/09 03:31JONDOL8899balak200,000
3922/09 03:31IJONKbalak20,000
4022/09 03:31REGARD47murni besar25,000
4122/09 03:31WIDIA11murni besar50,000
4222/09 03:31MANAP88murni besar50,000
4322/09 03:31DAKKENOmurni besar50,000
4422/09 03:31SENGEK303murni besar25,000
4522/09 03:31JULIET_46murni besar5,000
4622/09 03:31ZITObalak200,000
4722/09 03:31BERABEbalak20,000
4822/09 03:31HRP561978murni besar50,000
4922/09 03:31INDAHP15murni besar5,000
5022/09 03:31HAWA87balak20,000